Location: West Rural Hill
(37.9656°N, 88.6884°W)
Time: 15:31:10
(UTC+00:00)

Daily predictions for brighter satellites

Satellite Brightness Start Highest point End
(mag) Time Altitude Azimuth Time Altitude Azimuth Time Altitude Azimuth
ATLAS 5 CENTAUR R/B 2.5 12:03:12 12° W 12:05:50 23° NW 12:09:12 10° N
CZ-4B R/B 2.6 12:04:17 10° N 12:07:48 58° WNW 12:11:23 10° SSW
Cosmos 1340 Rocket 3.3 12:04:46 10° SW 12:08:26 36° WNW 12:12:09 10° N
Envisat 4.2 12:05:10 10° NNW 12:08:51 21° WNW 12:12:32 10° WSW
Cosmos 158 Rocket 4.1 12:03:40 10° NNW 12:08:52 83° ENE 12:14:10 10° SSE
Cosmos 1666 4.3 12:09:01 10° SSE 12:12:32 38° E 12:16:03 10° NNE
Nadezhda 4 Rocket 4.4 12:06:54 10° SSW 12:12:39 41° WNW 12:18:29 10° N
Alouette 2 Rocket 3.1 12:09:40 10° NNW 12:13:14 72° W 12:17:05 10° S
Cosmos 1500 Rocket 4.1 12:09:17 10° SW 12:13:24 37° WNW 12:17:33 10° N
NOAA 6 4.3 12:10:17 10° NNE 12:15:25 75° ESE 12:20:31 10° S
Sich 1 2.9 12:12:04 10° S 12:16:20 80° W 12:20:37 10° N
DMSP B5D2-2 4.1 12:11:28 10° S 12:16:36 61° WSW 12:21:46 10° NNW
Lacrosse 4 Rocket 4.1 12:20:51 10° NNE 12:23:00 13° NE 12:25:09 10° ENE
ATLAS 3B R/B 3.1 12:18:58 10° WSW 12:25:01 39° NW 12:31:21 10° NNE
H-2A R/B 2.0 12:21:06 10° S 12:25:21 73° WSW 12:29:44 10° NNW
Cosmos 1805 Rocket 3.8 12:21:33 10° SSW 12:25:46 47° W 12:30:00 10° N
Meteor 1-27 Rocket 4.4 12:22:26 10° NNW 12:27:36 36° W 12:32:49 10° SSW
BREEZE-M DEB (TANK) 3.6 12:18:18 10° NW 12:28:15 79° SW 12:31:25 10° SE
Lacrosse 5 2.3 12:23:19 10° SSW 12:28:21 70° SE 12:33:27 10° NE
Cosmos 1707 Rocket 4.1 12:26:05 10° N 12:30:31 65° E 12:34:57 10° SSE
Cosmos 1092 Rocket 4.2 12:25:35 10° SSW 12:31:37 51° W 12:37:45 10° N
Cosmos 1602 3.7 22:56:52 10° N 23:00:43 69° E 23:04:35 10° SSE
Tiangong 3.7 23:00:33 10° SSE 23:01:12 10° SE 23:01:52 10° SE
COSMOS 2455 3.3 22:55:26 10° SW 23:01:24 67° WNW 23:07:26 10° NNE
SL-08 R/B 4.3 22:59:02 10° N 23:03:32 49° WNW 23:07:57 10° SSW
DEBRIS 4.3 23:02:33 10° SE 23:03:33 12° ESE 23:04:47 10° E
Cosmos 2369 3.7 22:58:03 10° NNW 23:03:45 64° ENE 23:09:23 10° SSE
USA 267 3.5 22:58:47 10° NE 23:05:17 69° NW 23:11:45 10° WSW
Cosmos 1937 Rocket 3.6 23:01:55 10° NNW 23:07:16 85° ENE 23:12:34 10° SSE
Cosmos 2082 Rocket 2.4 23:02:12 10° SSW 23:07:53 79° WNW 23:13:35 10° NNE
Cosmos 372 Rocket 4.1 23:02:56 10° N 23:08:05 54° ENE 23:13:12 10° SE
FengYun 1-2 T 4.2 23:02:40 10° SSE 23:08:14 73° ENE 23:13:45 10° N
SL-16 R/B 3.6 23:06:06 10° NNE 23:09:32 16° NE 23:12:57 10° E
H-2A R/B 2.8 23:05:41 10° SE 23:10:07 30° ENE 23:14:28 10° N
ARGOS 4.3 23:08:38 10° ESE 23:12:30 20° ENE 23:16:22 10° NNE
CZ-2C R/B 3.3 23:07:47 10° S 23:12:40 70° WSW 23:17:25 10° NNW
Cosmos 1151 Rocket 3.2 23:09:28 10° SSE 23:13:37 49° E 23:17:50 10° NNE
Cosmos 1500 3.1 23:10:49 10° N 23:14:31 62° E 23:18:11 10° SSE
COSMO-SKYMED 1 3.7 23:11:35 10° NE 23:15:06 24° E 23:18:36 10° SSE
Cosmos 1633 Rocket 3.7 23:12:32 10° NNE 23:16:30 32° ENE 23:20:27 10° SE
X-37B 0.5 23:17:56 10° SW 23:20:45 61° SSE 23:23:02 14° ENE
Cosmos 1939 Rocket 2.9 23:17:23 10° SSE 23:21:30 89° ENE 23:25:35 10° NNW
Centaur D-1A AC-32 4.5 23:17:23 10° WSW 23:22:51 22° SSW 23:25:56 10° SE
CZ-4B DEB 4.2 23:18:57 10° SSE 23:24:21 60° ENE 23:29:45 10° N
CZ-2D R/B 3.6 23:21:56 10° SE 23:25:31 40° ENE 23:29:07 10° N
Cosmos 2278 3.8 23:20:53 10° NNW 23:26:30 54° ENE 23:32:02 10° SE
Cosmos 1092 Rocket 4.5 23:23:11 10° NNW 23:29:29 67° W 23:35:42 10° S
Cosmos 1782 3.9 23:25:54 10° SSW 23:29:45 47° W 23:33:36 10° N
NOAA 6 4.0 23:24:54 10° SSE 23:30:02 90° WSW 23:35:11 10° NNW
AQUARIUS 4.1 23:27:10 10° SSE 23:31:39 84° ENE 23:36:09 10° N
Meteor 1-14 Rocket 4.3 23:26:47 10° N 23:32:39 65° E 23:38:33 10° SSE
USA 234 3.6 23:29:58 10° ESE 23:36:05 44° NE 23:42:11 10° NW
CZ-2C R/B 2.8 23:32:48 10° NNE 23:37:48 47° E 23:42:45 10° S
Cosmos 1328 Rocket 3.5 23:36:54 10° S 23:41:19 73° E 23:45:44 10° N
MOS 1-B 4.3 23:37:22 10° SSE 23:43:03 63° ENE 23:48:46 10° N
Cosmos 1666 2.5 23:39:39 10° N 23:43:22 77° E 23:47:04 10° S
Cosmos 1666 Rocket 3.5 23:40:58 10° N 23:45:25 88° E 23:49:47 10° S
Okean O Rocket 2.2 23:42:21 10° SE 23:46:21 34° ENE 23:50:23 10° N
SL-24 R/B - RUBIN 2 4.0 23:42:02 10° NW 23:46:22 62° WSW 23:50:37 10° SSE
SMAP 3.9 23:44:15 10° S 23:48:46 53° W 23:53:20 10° NNW
Cosmos 1470 Rocket 3.9 23:44:41 10° N 23:48:58 43° E 23:53:13 10° SSE
Cosmos 2279 Rocket 4.1 23:42:46 10° S 23:48:59 80° W 23:55:13 10° N
CZ-4B R/B 3.2 23:46:19 10° SSE 23:51:35 55° ENE 23:56:47 10° N
CZ-4C R/B 3.9 23:54:58 27° ESE 23:54:58 27° ESE 23:57:42 10° SSE
ATLAS 5 CENTAUR R/B 3.6 23:51:43 10° NNW 23:54:49 16° NNE 23:54:52 16° NNE
Meteor 1-27 Rocket 4.1 23:49:52 10° SSE 23:54:55 38° E 23:59:06 14° NNE
Lacrosse 5 rocket 2.0 23:51:54 10° NNW 23:55:33 33° NE 23:56:31 30° ENE
